| time (UTC) | temp C | wind direction | speed KPH | gust KPH | rain 1hr cm | rain 24hr cm | rain mn cm | humidity % | barometer mb |
| 20260901124515 | 20 | 344 | 14.5 | 20.9 | 0.00 | 0.10 | 0.00 | 75 | 1011.5 |
| 20260901122515 | 20 | 286 | 11.3 | 20.9 | 0.00 | 0.10 | 0.00 | 79 | 1011.5 |
| 20260901115514 | 19 | 236 | 9.7 | 22.5 | 0.00 | 0.10 | 0.00 | 81 | 1011.6 |
| 20260901114514 | 18 | 311 | 11.3 | 19.3 | 0.00 | 0.10 | 0.00 | 81 | 1011.7 |
| 20260901113514 | 19 | 329 | 12.9 | 25.7 | 0.00 | 0.10 | 0.00 | 81 | 1011.6 |
| 20260901105515 | 18 | 304 | 11.3 | 19.3 | 0.00 | 0.13 | 0.00 | 86 | 1011.5 |
| 20260901103515 | 17 | 286 | 14.5 | 24.1 | 0.00 | 0.23 | 0.00 | 85 | 1011.5 |
| 20260901102515 | 18 | 337 | 12.9 | 24.1 | 0.00 | 0.30 | 0.00 | 85 | 1011.3 |
| 20260901101515 | 18 | 330 | 16.1 | 24.1 | 0.00 | 0.33 | 0.00 | 84 | 1011.4 |
| 20260901100514 | 18 | 275 | 16.1 | 25.7 | 0.00 | 0.33 | 0.00 | 85 | 1011.1 |
| 20260901093514 | 18 | 323 | 16.1 | 25.7 | 0.00 | 0.33 | 0.00 | 86 | 1011.0 |
| 20260901092515 | 18 | 335 | 9.7 | 25.7 | 0.00 | 0.33 | 0.00 | 88 | 1010.9 |
| 20260901090515 | 17 | 335 | 11.3 | 20.9 | 0.00 | 0.33 | 0.00 | 88 | 1010.7 |
| 20260901080514 | 17 | 296 | 11.3 | 22.5 | 0.00 | 0.33 | 0.00 | 90 | 1010.0 |
| 20260901075515 | 17 | 267 | 11.3 | 22.5 | 0.00 | 0.33 | 0.00 | 91 | 1009.9 |
| 20260901073514 | 17 | 288 | 11.3 | 20.9 | 0.00 | 0.33 | 0.00 | 91 | 1009.7 |
| 20260901070514 | 17 | 263 | 9.7 | 14.5 | 0.00 | 0.33 | 0.00 | 93 | 1009.5 |
| 20260901064516 | 16 | 303 | 8.0 | 16.1 | 0.00 | 0.33 | 0.00 | 94 | 1009.3 |
| 20260901062515 | 16 | 285 | 6.4 | 16.1 | 0.00 | 0.33 | 0.00 | 95 | 1009.1 |
| 20260901061515 | 16 | 288 | 3.2 | 11.3 | 0.00 | 0.33 | 0.00 | 95 | 1009.1 |
| 20260901055514 | 16 | 296 | 3.2 | 8.0 | 0.00 | 0.33 | 0.00 | 95 | 1009.0 |
| 20260901052515 | 15 | 336 | 4.8 | 11.3 | 0.00 | 0.33 | 0.00 | 95 | 1008.8 |
| 20260901050515 | 15 | 279 | 4.8 | 11.3 | 0.00 | 0.33 | 0.00 | 95 | 1008.6 |
| 20260901045515 | 15 | 270 | 4.8 | 14.5 | 0.00 | 0.33 | 0.00 | 95 | 1008.6 |
| 20260901043515 | 15 | 279 | 6.4 | 11.3 | 0.00 | 0.33 | 0.00 | 95 | 1008.4 |
| 20260901040515 | 15 | 267 | 3.2 | 9.7 | 0.00 | 0.33 | 0.00 | 95 | 1008.3 |
| 20260901035515 | 15 | 266 | 3.2 | 8.0 | 0.00 | 0.33 | 0.00 | 95 | 1008.2 |
| 20260901032515 | 15 | 230 | 6.4 | 9.7 | 0.00 | 0.33 | 0.00 | 95 | 1008.0 |
| 20260901031515 | 15 | 221 | 3.2 | 9.7 | 0.00 | 0.33 | 0.00 | 95 | 1008.0 |
| 20260901025514 | 15 | 249 | 3.2 | 11.3 | 0.00 | 0.33 | 0.00 | 95 | 1007.9 |
| 20260901024515 | 15 | 251 | 4.8 | 9.7 | 0.00 | 0.33 | 0.00 | 95 | 1007.9 |
| 20260901023517 | 15 | 247 | 4.8 | 11.3 | 0.00 | 0.33 | 0.00 | 95 | 1007.8 |
| 20260901021515 | 15 | 242 | 4.8 | 11.3 | 0.00 | 0.33 | 0.00 | 95 | 1007.8 |
| 20260901020515 | 15 | 225 | 9.7 | 12.9 | 0.00 | 0.33 | 0.00 | 95 | 1007.8 |
| 20260901015515 | 15 | 241 | 8.0 | 14.5 | 0.00 | 0.33 | 0.00 | 94 | 1007.7 |
| 20260901011515 | 15 | 219 | 4.8 | 9.7 | 0.00 | 0.33 | 0.00 | 94 | 1007.5 |
| 20260901010515 | 15 | 223 | 4.8 | 14.5 | 0.00 | 0.33 | 0.00 | 94 | 1007.5 |
| 20260901005515 | 15 | 217 | 9.7 | 16.1 | 0.00 | 0.33 | 0.00 | 94 | 1007.6 |
| 20260901003515 | 15 | 229 | 8.0 | 12.9 | 0.00 | 0.33 | 0.00 | 94 | 1007.5 |
| 20260901001516 | 15 | 229 | 8.0 | 14.5 | 0.00 | 0.33 | 0.00 | 94 | 1007.4 |
| 20260901000514 | 15 | 231 | 8.0 | 12.9 | 0.00 | 0.33 | 0.00 | 94 | 1007.3 |
| 20260831234516 | 15 | 229 | 9.7 | 16.1 | 0.00 | 0.33 | 0.00 | 94 | 1007.3 |
| 20260831233515 | 15 | 233 | 8.0 | 12.9 | 0.00 | 0.33 | 0.00 | 94 | 1007.3 |
| 20260831232515 | 15 | 224 | 3.2 | 9.7 | 0.00 | 0.33 | 0.00 | 94 | 1007.3 |
| 20260831231516 | 16 | 225 | 4.8 | 12.9 | 0.00 | 0.33 | 0.00 | 94 | 1007.3 |
| 20260831230516 | 16 | 230 | 6.4 | 12.9 | 0.00 | 0.33 | 0.00 | 93 | 1007.3 |
| 20260831224515 | 16 | 202 | 4.8 | 11.3 | 0.00 | 0.33 | 0.00 | 93 | 1007.3 |
| 20260831222515 | 16 | 230 | 4.8 | 14.5 | 0.00 | 0.33 | 0.00 | 94 | 1007.3 |
| 20260831220515 | 16 | 224 | 3.2 | 9.7 | 0.00 | 0.33 | 0.00 | 94 | 1007.4 |
| 20260831212515 | 15 | 228 | 6.4 | 11.3 | 0.03 | 0.33 | 0.33 | 94 | 1007.1 |
| 20260831203516 | 15 | 212 | 0.0 | 9.7 | 0.00 | 0.33 | 0.33 | 93 | 1007.0 |
| 20260831202516 | 15 | 206 | 1.6 | 9.7 | 0.00 | 0.33 | 0.33 | 93 | 1006.8 |
| 20260831201516 | 15 | 206 | 1.6 | 8.0 | 0.00 | 0.33 | 0.33 | 93 | 1006.8 |
| 20260831200517 | 15 | 226 | 3.2 | 8.0 | 0.00 | 0.33 | 0.33 | 93 | 1006.8 |
| 20260831195516 | 15 | 227 | 3.2 | 8.0 | 0.00 | 0.33 | 0.33 | 93 | 1006.9 |
| 20260831193515 | 16 | 200 | 3.2 | 9.7 | 0.00 | 0.33 | 0.33 | 92 | 1006.8 |
| 20260831191516 | 16 | 200 | 3.2 | 9.7 | 0.00 | 0.33 | 0.33 | 92 | 1006.8 |
| 20260831185515 | 16 | 139 | 1.6 | 8.0 | 0.00 | 0.33 | 0.33 | 92 | 1006.4 |
| 20260831183515 | 16 | 197 | 0.0 | 3.2 | 0.00 | 0.33 | 0.33 | 91 | 1006.2 |
| 20260831170514 | 17 | 225 | 4.8 | 11.3 | 0.00 | 0.36 | 0.33 | 89 | 1006.0 |
| 20260831165515 | 17 | 292 | 8.0 | 12.9 | 0.00 | 0.36 | 0.33 | 89 | 1006.1 |
| 20260831164515 | 17 | 203 | 8.0 | 11.3 | 0.00 | 0.36 | 0.33 | 90 | 1006.1 |
| 20260831162515 | 17 | 235 | 8.0 | 12.9 | 0.05 | 0.36 | 0.33 | 90 | 1006.2 |
| 20260831161515 | 17 | 269 | 4.8 | 9.7 | 0.05 | 0.36 | 0.33 | 90 | 1006.1 |
| 20260831160514 | 17 | 243 | 4.8 | 11.3 | 0.05 | 0.36 | 0.33 | 90 | 1006.1 |
| 20260831150514 | 18 | 209 | 11.3 | 25.7 | 0.05 | 0.33 | 0.28 | 87 | 1006.1 |
| 20260831145514 | 18 | 221 | 14.5 | 20.9 | 0.03 | 0.30 | 0.25 | 84 | 1006.1 |
| 20260831144514 | 19 | 213 | 8.0 | 20.9 | 0.00 | 0.28 | 0.23 | 82 | 1006.0 |
| 20260831143514 | 19 | 242 | 14.5 | 20.9 | 0.00 | 0.28 | 0.23 | 81 | 1006.1 |
| 20260831141514 | 20 | 230 | 12.9 | 20.9 | 0.00 | 0.28 | 0.23 | 81 | 1006.1 |
| 20260831140514 | 20 | 212 | 11.3 | 19.3 | 0.00 | 0.28 | 0.23 | 82 | 1006.1 |
| 20260831135514 | 20 | 218 | 9.7 | 19.3 | 0.00 | 0.28 | 0.23 | 82 | 1005.9 |
| 20260831134514 | 20 | 225 | 11.3 | 22.5 | 0.00 | 0.28 | 0.23 | 81 | 1005.8 |
| 20260831133515 | 20 | 221 | 11.3 | 20.9 | 0.00 | 0.28 | 0.23 | 82 | 1005.9 |
| 20260831132516 | 20 | 219 | 12.9 | 22.5 | 0.00 | 0.28 | 0.23 | 83 | 1006.0 |
| 20260831131514 | 20 | 221 | 8.0 | 19.3 | 0.00 | 0.28 | 0.23 | 83 | 1005.9 |
| 20260831130514 | 20 | 214 | 9.7 | 22.5 | 0.00 | 0.30 | 0.23 | 84 | 1005.9 |
| 20260831125515 | 21 | 272 | 11.3 | 19.3 | 0.00 | 0.30 | 0.23 | 84 | 1006.0 |